Date String (YYYY-MM-DD hh:mm:ss) UTC,Instrument flags,Ambient pressure (hPa),Sample flow (lpm),Bypass flow (lpm),Sample temperature (°C),Ambient temperature (°C),ASC tube jacket temperature (°C),LED temperature (°C),Box temperature (°C),Sample RH (%),Span deviation,Mass concentration (μg/m³),Mass concentration (μg/m³),Mass concentration (μg/m³)
DateTimeUTC,F1_M11,P_M11,Q1_M11,Q2_M11,T1_M11,T2_M11,T3_M11,T4_M11,T5_M11,U1_M11,ZSPAN_M11,X0_M11,X2_M11,X1_M11
2022-12-29 16:00:00,,0816.2,5.00,0.00,17.9,14.7,00.0,27.1,20.0,10.1,0000.0,0002.04,0001.72,0001.63
2022-12-29 16:01:00,,0816.2,5.01,0.00,17.9,14.7,00.0,27.1,20.0,10.2,0000.0,0002.01,0001.71,0001.63
2022-12-29 16:02:00,,0816.2,5.01,0.00,17.9,14.7,00.0,27.1,20.0,10.0,0000.0,0001.97,0001.69,0001.62
2022-12-29 16:03:00,,0816.3,5.00,0.00,17.9,14.9,00.0,27.1,20.0,10.2,0000.0,0001.87,0001.65,0001.62
2022-12-29 16:04:00,,0816.3,5.00,0.00,18.0,15.7,00.0,27.0,20.0,10.6,0000.0,0001.85,0001.65,0001.61
2022-12-29 16:05:00,,0816.3,5.00,0.00,18.0,17.0,00.0,26.9,20.0,09.9,0000.0,0001.92,0001.66,0001.61
2022-12-29 16:06:00,,0816.3,5.00,0.00,18.1,17.9,00.0,26.9,20.1,09.9,0000.0,0001.93,0001.66,0001.60
2022-12-29 16:07:00,,0816.3,4.97,0.00,18.2,18.8,00.0,26.9,20.2,10.2,0000.0,0001.99,0001.69,0001.60
2022-12-29 16:08:00,,0816.3,5.04,0.00,18.3,19.6,00.0,27.0,20.4,10.1,0000.0,0002.02,0001.69,0001.59
2022-12-29 16:09:00,,0816.3,4.97,0.00,18.4,20.2,00.0,27.0,20.6,10.0,0000.0,0002.01,0001.68,0001.57
2022-12-29 16:10:00,,0816.3,5.05,0.00,18.6,20.8,00.0,27.1,20.9,09.8,0000.0,0002.03,0001.67,0001.56
2022-12-29 16:11:00,,0816.3,4.96,0.00,18.8,21.3,00.0,27.2,21.1,09.7,0000.0,0002.05,0001.68,0001.56
2022-12-29 16:12:00,,0816.4,5.04,0.00,18.9,21.7,00.0,27.3,21.3,09.9,0000.0,0003.01,0001.68,0001.56
2022-12-29 16:13:00,,0816.5,4.96,0.00,19.1,22.0,00.0,27.4,21.5,09.7,0000.0,0004.74,0001.67,0001.56
2022-12-29 16:14:00,,0816.5,5.05,0.00,19.3,22.4,00.0,27.5,21.7,09.8,0000.0,0004.85,0001.70,0001.56
2022-12-29 16:15:00,,0816.4,4.96,0.00,19.4,22.6,00.0,27.6,21.9,09.7,0000.0,0004.93,0001.73,0001.57
2022-12-29 16:16:00,,0816.4,4.96,0.00,19.5,22.8,00.0,27.7,22.0,09.6,0000.0,0004.93,0001.73,0001.57
2022-12-29 16:17:00,,0816.4,5.05,0.00,19.8,23.2,00.0,27.9,22.4,09.3,0000.0,0004.89,0001.71,0001.56
2022-12-29 16:18:00,,0816.4,4.97,0.00,20.1,23.5,00.0,28.1,22.7,09.2,0000.0,0005.10,0001.69,0001.54
2022-12-29 16:19:00,,0816.5,5.04,0.00,20.2,23.8,00.0,28.2,22.9,09.4,0000.0,0005.04,0001.65,0001.51
2022-12-29 16:20:00,,0816.5,4.97,0.00,20.5,24.0,00.0,28.4,23.1,09.3,0000.0,0004.95,0001.60,0001.49
2022-12-29 16:21:00,,0816.5,5.05,0.00,20.6,24.3,00.0,28.6,23.3,09.7,0000.0,0004.97,0001.60,0001.47
2022-12-29 16:22:00,,0816.6,4.96,0.00,20.9,24.5,00.0,28.8,23.6,09.5,0000.0,0004.98,0001.61,0001.46
2022-12-29 16:23:00,,0816.6,5.03,0.00,21.1,24.7,00.0,28.9,23.8,09.3,0000.0,0004.95,0001.58,0001.45
2022-12-29 16:24:00,,0816.8,4.95,0.00,21.3,24.6,00.0,29.1,23.9,08.6,0000.0,0004.69,0001.56,0001.41
2022-12-29 16:25:00,,0816.9,5.04,0.00,21.3,23.4,00.0,29.3,23.6,08.8,0000.0,0003.28,0001.54,0001.39
2022-12-29 16:26:00,,0817.2,5.01,0.00,21.3,22.2,00.0,29.4,23.3,08.9,0000.0,0002.17,0001.53,0001.37
2022-12-29 16:27:00,,0817.0,4.98,0.00,21.3,22.1,00.0,29.5,23.3,08.8,0000.0,0002.79,0001.51,0001.36
2022-12-29 16:28:00,,0816.9,4.99,0.00,21.4,23.0,00.0,29.6,23.6,08.6,0000.0,0004.68,0001.51,0001.34
2022-12-29 16:29:00,,0816.9,5.03,0.00,21.6,23.7,00.0,29.7,23.9,08.6,0000.0,0004.58,0001.52,0001.35
2022-12-29 16:30:00,,0817.0,5.01,0.00,21.7,24.2,00.0,29.8,24.1,08.6,0000.0,0004.49,0001.53,0001.35
2022-12-29 16:31:00,,0817.0,4.96,0.00,21.8,23.5,00.0,29.9,24.0,08.8,0000.0,0004.52,0001.55,0001.35
2022-12-29 16:32:00,,0817.0,5.01,0.00,21.8,22.5,00.0,30.0,23.7,08.7,0000.0,0004.54,0001.56,0001.35
2022-12-29 16:33:00,,0817.0,5.04,0.00,21.7,21.6,00.0,30.1,23.5,08.9,0000.0,0004.54,0001.55,0001.34
2022-12-29 16:34:00,,0817.0,5.00,0.00,21.6,21.2,00.0,30.1,23.4,08.9,0000.0,0004.56,0001.55,0001.34
2022-12-29 16:35:00,,0817.0,4.97,0.00,21.7,22.2,00.0,30.2,23.6,08.6,0000.0,0004.56,0001.54,0001.34
2022-12-29 16:36:00,,0817.0,5.00,0.00,21.8,23.3,00.0,30.2,24.0,08.3,0000.0,0004.66,0001.56,0001.33
2022-12-29 16:37:00,,0817.0,5.03,0.00,22.0,23.9,00.0,30.3,24.2,08.5,0000.0,0005.14,0001.56,0001.31
2022-12-29 16:38:00,,0817.0,4.98,0.00,22.1,23.3,00.0,30.4,24.1,08.4,0000.0,0005.57,0001.57,0001.30
2022-12-29 16:39:00,,0817.1,4.96,0.00,22.0,22.5,00.0,30.5,23.9,08.4,0000.0,0003.02,0001.52,0001.28
2022-12-29 16:40:00,,0817.1,5.00,0.00,22.0,21.7,00.0,30.6,23.7,08.4,0000.0,0002.99,0001.51,0001.27
2022-12-29 16:41:00,,0817.1,5.03,0.00,21.9,21.1,00.0,30.6,23.5,08.7,0000.0,0003.10,0001.51,0001.26
2022-12-29 16:42:00,,0817.2,5.02,0.00,21.9,21.8,00.0,30.6,23.7,09.1,0000.0,0003.25,0001.49,0001.25
2022-12-29 16:43:00,,0817.2,4.96,0.00,22.0,23.0,00.0,30.6,24.0,09.3,0000.0,0003.24,0001.46,0001.24
2022-12-29 16:44:00,,0817.2,4.99,0.00,22.2,23.7,00.0,30.6,24.3,09.2,0000.0,0003.17,0001.43,0001.23
2022-12-29 16:45:00,,0817.2,5.05,0.00,22.2,22.9,00.0,30.7,24.1,09.0,0000.0,0003.16,0001.43,0001.23
2022-12-29 16:46:00,,0817.2,4.98,0.00,22.2,22.1,00.0,30.8,23.9,09.2,0000.0,0003.27,0001.45,0001.24
2022-12-29 16:47:00,,0817.2,4.98,0.00,22.1,21.3,00.0,30.8,23.7,08.9,0000.0,0003.22,0001.45,0001.25
2022-12-29 16:48:00,,0817.2,4.98,0.00,22.0,20.7,00.0,30.8,23.5,08.9,0000.0,0003.04,0001.43,0001.25
2022-12-29 16:49:00,,0817.3,5.04,0.00,21.9,20.8,00.0,30.8,23.5,09.2,0000.0,0002.11,0001.39,0001.23
2022-12-29 16:50:00,,0817.4,5.01,0.00,22.0,22.4,00.0,30.8,23.9,09.2,0000.0,0002.08,0001.36,0001.21
2022-12-29 16:51:00,,0817.3,4.96,0.00,22.2,23.4,00.0,30.8,24.2,09.2,0000.0,0002.10,0001.35,0001.19
2022-12-29 16:52:00,,0817.3,4.99,0.00,22.3,23.0,00.0,30.9,24.2,09.4,0000.0,0001.94,0001.31,0001.16
2022-12-29 16:53:00,,0817.4,5.03,0.00,22.3,22.4,00.0,30.9,24.1,09.7,0000.0,0001.72,0001.27,0001.15
2022-12-29 16:54:00,,0817.4,5.01,0.00,22.2,21.8,00.0,30.9,24.0,09.8,0000.0,0001.69,0001.26,0001.15
2022-12-29 16:55:00,,0817.4,4.98,0.00,22.2,21.3,00.0,30.9,23.9,10.0,0000.0,0001.67,0001.24,0001.13
2022-12-29 16:56:00,,0817.4,4.97,0.00,22.2,21.0,00.0,30.9,23.8,11.0,0000.0,0001.69,0001.27,0001.16
2022-12-29 16:57:00,,0817.4,5.03,0.00,22.1,20.8,00.0,30.9,23.7,11.5,0000.0,0001.68,0001.33,0001.23
2022-12-29 16:58:00,,0817.4,5.06,0.00,22.1,20.6,00.0,30.9,23.6,12.1,0000.0,0001.88,0001.47,0001.33
2022-12-29 16:59:00,,0817.5,4.98,0.00,22.1,21.4,00.0,30.9,23.8,12.6,0000.0,0002.07,0001.63,0001.48
